Location: Kutna Hora
(49.9500°N, 15.2670°E)
Time: 13:18:22
(UTC+02:00)

ISS - Pass Details

Date: 27 May 2019
Orbit: 408 x 418 km, 51.6° (Epoch: 18 June)

Event Time Altitude Azimuth Distance (km) Brightness Sun altitude
Rises 00:10:17 0° 288° (WNW) 2,362 0.5 -18.1°
Reaches altitude 10° 00:12:26 10° 281° (W) 1,498 -0.7 -18.2°
Enters shadow 00:15:04 38° 238° (WSW) 658 -3.0 -18.3°
